Regional Weather Roundup
Issued by NWS Albany, NY

Home | Current Version | Previous Version | Text Only | Print | Product List | Glossary On
Versions: 1 2 3 4 5 6 7 8 9 10 11 12 13 14 15 16 17 18 19 20 21 22 23 24 25 26 27 28 29 30 31 32 33 34 35 36 37 38 39 40 41 42 43 44 45 46 47 48 49 50
000
ASUS41 KALY 301210
RWRALY

NEW YORK STATE HOURLY WEATHER ROUNDUP
NATIONAL WEATHER SERVICE ALBANY NY
800 AM EDT SAT MAY 30 2015

NOTE: "FAIR" INDICATES FEW OR NO CLOUDS BELOW 12,000 FEET WITH NO
SIGNIFICANT WEATHER AND/OR NO OBSTRUCTIONS TO VISIBILITY.

NYZ032-033-038>043-046>054-057>066-NYZ062>081-301300-
EAST


CITY           SKY/WX    TMP DP  RH WIND       PRES   REMARKS
ALBANY         MOSUNNY   70  59  68 S15       30.14S
GLENS FALLS    MOSUNNY   68  58  70 SW9       30.12F
POUGHKEEPSIE   SUNNY     71  62  73 SE6       30.18S
NEWBURGH       SUNNY     70  64  83 S6        30.20F
MONTGOMERY     SUNNY     68  63  84 SW3       30.19S
WHITE PLAINS   MOSUNNY   67  63  87 S5        30.21S
ISLIP          PTSUNNY   67  64  90 SW7       30.22S
NEW YORK CITY  MOSUNNY   72  63  73 S8        30.21S
CENTRAL PARK   SUNNY     71  64  78 VRB5      30.24R
$$

NYZ005>009-017-018-044>046-055-056-301300-
CENTRAL


CITY           SKY/WX    TMP DP  RH WIND       PRES   REMARKS
FULTON         PTSUNNY   76  65  68 S12       30.04S
SYRACUSE       CLOUDY    75  66  73 S12       30.05S
ROME           CLOUDY    72  64  76 SE6       30.10S
ELMIRA         PTSUNNY   75  67  76 SW9       30.10S
BINGHAMTON     CLOUDY    68  64  87 S9        30.15S
MONTICELLO     MOSUNNY   68  63  83 CALM      30.22S
$$

NYZ026>034-041>043-301300-
NORTH


CITY           SKY/WX    TMP DP  RH WIND       PRES   REMARKS
WATERTOWN      CLOUDY    76  64  66 S15G25    30.00S
FORT DRUM      NOT AVBL
MASSENA        MOSUNNY   77  63  61 SW17G26   29.97R
SARANAC LAKE   MOSUNNY   70  61  73 SW16G26   30.06S
PLATTSBURGH    CLOUDY    68  59  73 S12       30.01F
$$

NYZ001>004-010>016-019>021-301300-
WEST


CITY           SKY/WX    TMP DP  RH WIND       PRES   REMARKS
NIAGARA FALLS  CLOUDY    73  64  73 SW13      30.01R
BUFFALO        PTSUNNY   76  63  64 SW16G23   30.02S
DUNKIRK        PTSUNNY   73  64  73 S12G25    30.04R
JAMESTOWN      MOSUNNY   68  63  83 S6        30.12R
WELLSVILLE     MOSUNNY   70  61  73 SW15G21   30.14S
ROCHESTER      MOSUNNY   75  65  70 SW13      30.03R
PENN YAN       CLOUDY    74  64  71 S13       30.08R
$$

             KEY
       WCI = WIND CHILL INDEX
       VSB = VISIBILITY
       HX  = HEAT INDEX
$$


USA.gov is the U.S. government's official web portal to all federal, state and local government web resources and services.